TimeCDT,TemperatureF,Dew PointF,Humidity,Sea Level PressureIn,VisibilityMPH,Wind Direction,Wind SpeedMPH,Gust SpeedMPH,PrecipitationIn,Events,Conditions,WindDirDegrees,DateUTC
12:15 AM,46.4,39.2,76,30.21,10.0,North,13.8,18.4,N/A,,Overcast,360,2013-10-19 05:15:00
12:35 AM,46.0,38.3,74,30.21,10.0,North,17.3,24.2,N/A,,Overcast,10,2013-10-19 05:35:00
12:55 AM,46.0,38.3,74,30.21,10.0,North,12.7,-,N/A,,Overcast,360,2013-10-19 05:55:00
1:15 AM,45.7,38.3,75,30.21,10.0,North,10.4,19.6,N/A,,Overcast,360,2013-10-19 06:15:00
1:35 AM,45.1,37.8,75,30.21,10.0,North,13.8,18.4,N/A,,Overcast,360,2013-10-19 06:35:00
1:55 AM,44.6,37.2,75,30.21,10.0,North,10.4,18.4,N/A,,Overcast,360,2013-10-19 06:55:00
2:15 AM,43.9,37.0,77,30.21,10.0,North,10.4,-,N/A,,Overcast,10,2013-10-19 07:15:00
2:35 AM,44.1,37.4,77,30.21,10.0,North,5.8,-,N/A,,Overcast,360,2013-10-19 07:35:00
2:55 AM,43.7,37.4,78,30.21,10.0,North,9.2,-,N/A,,Overcast,360,2013-10-19 07:55:00
3:15 AM,43.3,37.6,80,30.21,10.0,NNW,5.8,-,N/A,,Mostly Cloudy,340,2013-10-19 08:15:00
3:35 AM,42.4,36.9,81,30.21,10.0,NNW,8.1,-,N/A,,Scattered Clouds,340,2013-10-19 08:35:00
3:55 AM,41.7,36.5,82,30.20,10.0,NNW,5.8,-,N/A,,Clear,330,2013-10-19 08:55:00
4:15 AM,41.2,36.5,83,30.21,10.0,NNW,5.8,-,N/A,,Clear,340,2013-10-19 09:15:00
4:35 AM,41.9,37.0,83,30.21,10.0,NNW,6.9,-,N/A,,Mostly Cloudy,340,2013-10-19 09:35:00
4:55 AM,41.9,37.4,84,30.21,10.0,NNW,6.9,-,N/A,,Overcast,340,2013-10-19 09:55:00
5:15 AM,41.5,36.9,83,30.22,10.0,NNW,8.1,-,N/A,,Overcast,340,2013-10-19 10:15:00
5:35 AM,41.0,36.1,83,30.23,10.0,NNW,8.1,-,N/A,,Mostly Cloudy,330,2013-10-19 10:35:00
5:55 AM,40.3,36.0,85,30.23,10.0,NNW,6.9,-,N/A,,Clear,340,2013-10-19 10:55:00
6:15 AM,40.1,36.0,85,30.23,7.0,NNW,5.8,-,N/A,,Clear,330,2013-10-19 11:15:00
6:35 AM,39.6,37.6,93,30.23,7.0,NW,3.5,-,N/A,,Clear,310,2013-10-19 11:35:00
6:55 AM,39.2,37.8,95,30.24,10.0,NW,4.6,-,N/A,,Clear,310,2013-10-19 11:55:00
7:15 AM,38.5,37.6,97,30.23,10.0,WNW,3.5,-,N/A,,Clear,300,2013-10-19 12:15:00
7:35 AM,38.1,37.2,97,30.24,10.0,West,4.6,-,N/A,,Clear,260,2013-10-19 12:35:00
7:55 AM,37.8,37.2,98,30.24,10.0,North,-9999.0,-,N/A,,Clear,0,2013-10-19 12:55:00
8:15 AM,38.3,37.6,97,30.24,10.0,West,3.5,-,N/A,,Clear,280,2013-10-19 13:15:00
8:35 AM,39.7,38.3,95,30.25,10.0,WNW,3.5,-,N/A,,Clear,290,2013-10-19 13:35:00
8:55 AM,41.4,38.5,89,30.25,10.0,WNW,5.8,-,N/A,,Clear,290,2013-10-19 13:55:00
9:15 AM,43.0,38.1,83,30.25,10.0,NW,6.9,-,N/A,,Clear,310,2013-10-19 14:15:00
9:35 AM,45.5,37.2,73,30.26,10.0,NW,8.1,-,N/A,,Clear,310,2013-10-19 14:35:00
9:55 AM,47.7,36.7,66,30.25,7.0,North,-9999.0,-,N/A,,Clear,0,2013-10-19 14:55:00
10:15 AM,49.8,36.9,61,30.25,7.0,Calm,Calm,-,N/A,,Clear,0,2013-10-19 15:15:00
10:35 AM,51.1,35.4,55,30.25,10.0,WNW,5.8,-,N/A,,Clear,300,2013-10-19 15:35:00
10:55 AM,52.7,33.6,48,30.25,7.0,NNW,9.2,-,N/A,,Clear,340,2013-10-19 15:55:00
11:15 AM,54.1,32.7,44,30.24,10.0,NW,4.6,-,N/A,,Clear,310,2013-10-19 16:15:00
11:35 AM,55.0,32.0,42,30.24,10.0,WNW,5.8,-,N/A,,Clear,300,2013-10-19 16:35:00
11:55 AM,56.7,33.3,41,30.23,10.0,Calm,Calm,-,N/A,,Clear,0,2013-10-19 16:55:00
1:55 PM,62.1,32.2,33,30.18,10.0,Calm,Calm,-,N/A,,Clear,0,2013-10-19 18:55:00
2:15 PM,63.5,33.1,32,30.17,10.0,NNW,3.5,-,N/A,,Clear,340,2013-10-19 19:15:00
2:35 PM,63.1,32.4,32,30.16,10.0,Calm,Calm,-,N/A,,Clear,0,2013-10-19 19:35:00
2:55 PM,64.4,32.0,30,30.15,10.0,NNE,3.5,-,N/A,,Clear,20,2013-10-19 19:55:00
3:15 PM,65.3,32.4,29,30.14,10.0,North,3.5,-,N/A,,Clear,10,2013-10-19 20:15:00
3:35 PM,64.9,33.1,31,30.13,10.0,Calm,Calm,-,N/A,,Clear,0,2013-10-19 20:35:00
3:55 PM,65.5,32.4,29,30.13,10.0,Calm,Calm,-,N/A,,Clear,0,2013-10-19 20:55:00
4:15 PM,66.2,32.5,29,30.12,10.0,Calm,Calm,-,N/A,,Clear,0,2013-10-19 21:15:00
4:35 PM,66.2,32.2,28,30.12,10.0,Calm,Calm,-,N/A,,Clear,0,2013-10-19 21:35:00
4:55 PM,66.4,32.0,28,30.11,10.0,Calm,Calm,-,N/A,,Clear,0,2013-10-19 21:55:00
5:15 PM,66.2,32.0,28,30.11,10.0,NE,3.5,-,N/A,,Clear,50,2013-10-19 22:15:00
5:35 PM,66.0,32.7,29,30.10,10.0,Calm,Calm,-,N/A,,Clear,0,2013-10-19 22:35:00
5:55 PM,65.7,32.0,29,30.10,10.0,Calm,Calm,-,N/A,,Clear,0,2013-10-19 22:55:00
6:15 PM,65.3,32.5,29,30.09,10.0,Calm,Calm,-,N/A,,Clear,0,2013-10-19 23:15:00
6:35 PM,64.6,32.0,30,30.09,10.0,Calm,Calm,-,N/A,,Clear,0,2013-10-19 23:35:00
6:55 PM,63.1,33.3,33,30.08,10.0,SSW,3.5,-,N/A,,Clear,200,2013-10-19 23:55:00
7:15 PM,61.7,33.3,34,30.08,10.0,SSW,3.5,-,N/A,,Clear,200,2013-10-20 00:15:00
7:35 PM,60.1,32.9,36,30.09,10.0,South,4.6,-,N/A,,Clear,180,2013-10-20 00:35:00
7:55 PM,58.1,35.6,43,30.09,10.0,SSE,6.9,-,N/A,,Clear,150,2013-10-20 00:55:00
8:15 PM,58.5,34.3,40,30.09,10.0,SSE,6.9,-,N/A,,Clear,160,2013-10-20 01:15:00
8:35 PM,55.9,35.8,47,30.09,10.0,SSE,8.1,-,N/A,,Clear,160,2013-10-20 01:35:00
8:55 PM,54.9,37.0,51,30.09,10.0,South,4.6,-,N/A,,Clear,170,2013-10-20 01:55:00
9:15 PM,52.5,38.5,59,30.09,10.0,South,5.8,-,N/A,,Clear,170,2013-10-20 02:15:00
9:35 PM,52.2,39.4,62,30.09,10.0,SSE,8.1,-,N/A,,Clear,160,2013-10-20 02:35:00
9:55 PM,51.6,38.8,62,30.09,10.0,SSE,8.1,-,N/A,,Clear,160,2013-10-20 02:55:00
10:15 PM,51.8,38.3,60,30.09,10.0,SSE,9.2,-,N/A,,Clear,160,2013-10-20 03:15:00
10:35 PM,51.4,38.5,61,30.09,10.0,SSE,8.1,-,N/A,,Clear,160,2013-10-20 03:35:00
10:55 PM,50.4,38.3,63,30.09,10.0,SSE,8.1,-,N/A,,Clear,150,2013-10-20 03:55:00
11:15 PM,49.1,38.3,66,30.09,10.0,SSE,9.2,-,N/A,,Clear,150,2013-10-20 04:15:00
11:35 PM,50.0,38.3,64,30.08,10.0,SSE,9.2,-,N/A,,Clear,160,2013-10-20 04:35:00
11:55 PM,49.5,38.7,66,30.08,10.0,SSE,8.1,-,N/A,,Clear,160,2013-10-20 04:55:00